Hourly Data Report for October 12, 2013

All times are specified in Local Standard Time (LST). Add 1 hour to adjust for Daylight Saving Time where and when it is observed.

FREDERICTON
NEW BRUNSWICK

45°52'08.000" N
66°32'14.000" W
20.70 m
8101505
71700
YFC

Download Data

Hourly Data (October 2013)
Hourly Data Report for October 12, 2013
Temp Definition
°C
Dew Point Temp Definition
°C
Rel Hum Definition
%
Wind Dir Definition
10's deg

Wind Spd Definition
km/h
Visibility Definition
km
Stn Press Definition
kPa
Hmdx Definition


Wind Chill Definition


Weather Definition


TIME
00:00 Legend Double Dagger 10.7 8.6 87 2 13 16.1 102.27     LegendNANA
01:00 Legend Double Dagger 8.9 7.7 92 3 9 16.1 102.29     LegendNANA
02:00 Legend Double Dagger 8.5 7.3 92 3 11 16.1 102.38     LegendNANA
03:00 Legend Double Dagger 7.8 6.4 91 5 9 16.1 102.42     LegendNANA
04:00 Legend Double Dagger 6.7 5.7 93 1 8 16.1 102.49     LegendNANA
05:00 Legend Double Dagger 6.0 5.0 93 2 9 16.1 102.58     LegendNANA
06:00 Legend Double Dagger 4.4 3.5 94 2 5 16.1 102.64     LegendNANA
07:00 Legend Double Dagger 3.7 3.3 97   0 16.1 102.70     LegendNANA
08:00 Legend Double Dagger 6.6 3.8 82 5 11 16.1 102.75     LegendNANA
09:00 Legend Double Dagger 8.7 3.2 68 5 17 16.1 102.76     LegendNANA
10:00 Legend Double Dagger 10.3 2.4 58 7 17 16.1 102.77     LegendNANA
11:00 Legend Double Dagger 11.9 2.9 54 8 18 16.1 102.78     LegendNANA
12:00 Legend Double Dagger 13.1 2.2 47 8 11 16.1 102.75     LegendNANA
13:00 Legend Double Dagger 12.8 2.4 49 4 15 16.1 102.71     LegendNANA
14:00 Legend Double Dagger 12.9 2.7 50 5 13 16.1 102.68     LegendNANA
15:00 Legend Double Dagger 13.2 2.2 47 7 13 16.1 102.66     LegendNANA
16:00 Legend Double Dagger 12.6 2.0 48 10 11 LegendMM 102.68     LegendNANA
17:00 Legend Double Dagger 11.3 2.4 54 10 13 16.1 102.70     LegendNANA
18:00
19:00 Legend Double Dagger 5.8 3.4 84 21 8 16.1 102.73     LegendNANA
20:00 Legend Double Dagger 4.2 2.7 90 20 4 16.1 102.75     LegendNANA
21:00 Legend Double Dagger 3.3 2.2 92 LegendMM 4 16.1 102.77     LegendNANA
22:00 Legend Double Dagger 2.2 1.5 95   0 16.1 102.80     LegendNANA
23:00 Legend Double Dagger 1.5 0.9 96 35 4 16.1 102.81     LegendNANA

Notes on Data Quality.

Legend

  • E = Estimated
  • M = Missing
  • NA = Not Available
  • ‡ = Partner data that is not subject to review by the National Climate Archives
Date modified: